Location: Fort Frances
(48.6170°N, 93.4170°W)
Time: 18:42:17
(UTC-06:00)

ISS - All Passes

Search period start: 16 December 2017 00:00
Search period end: 26 December 2017 00:00
Orbit: 402 x 406 km, 51.6° (Epoch: 17 December)

Date Brightness Start Highest point End Pass type
(mag) Time Alt. Az. Time Alt. Az. Time Alt. Az.
16 Dec - 11:22:55 10° SSW 11:25:51 30° SE 11:28:48 10° E daylight
16 Dec - 12:58:53 10° W 13:02:11 69° NNW 13:05:28 10° ENE daylight
16 Dec - 14:35:43 10° WNW 14:38:56 48° N 14:42:08 10° E daylight
16 Dec - 16:12:17 10° WNW 16:15:35 81° SSW 16:18:52 10° ESE daylight
16 Dec - 17:49:23 10° W 17:51:40 18° SW 17:53:57 10° S visible
17 Dec - 10:31:20 10° S 10:33:45 19° SE 10:36:11 10° E daylight
17 Dec - 12:06:35 10° WSW 12:09:53 87° SSE 12:13:12 10° ENE daylight
17 Dec - 13:43:21 10° WNW 13:46:34 47° N 13:49:46 10° ENE daylight
17 Dec - 15:20:00 10° WNW 15:23:18 73° NNE 15:26:35 10° ESE daylight
17 Dec - 16:56:42 10° W 16:59:35 28° SW 17:02:27 10° SSE visible
18 Dec - 09:40:32 10° SSE 09:41:43 11° SE 09:42:54 10° ESE daylight
18 Dec - 11:14:24 10° SW 11:17:38 58° SSE 11:20:53 10° ENE daylight
18 Dec - 12:50:57 10° W 12:54:11 52° N 12:57:25 10° ENE daylight
18 Dec - 14:27:42 10° WNW 14:30:57 57° NNE 14:34:12 10° E daylight
18 Dec - 16:04:15 10° WNW 16:07:25 45° SSW 16:10:35 10° SE daylight
19 Dec - 10:22:22 10° SW 10:25:25 36° SSE 10:28:29 10° ENE daylight
19 Dec - 11:58:32 10° W 12:01:49 63° NNW 12:05:05 10° ENE daylight
19 Dec - 13:35:21 10° WNW 13:38:35 49° N 13:41:48 10° E daylight
19 Dec - 15:11:53 10° WNW 15:15:11 71° SSW 15:18:28 10° ESE daylight
19 Dec - 16:49:16 10° W 16:51:12 15° SW 16:53:07 10° S daylight
20 Dec - 09:30:38 10° SSW 09:33:16 22° SE 09:35:55 10° E daylight
20 Dec - 11:06:10 10° WSW 11:09:28 84° NNW 11:12:46 10° ENE daylight
20 Dec - 12:42:57 10° WNW 12:46:10 47° N 12:49:22 10° ENE daylight
20 Dec - 14:19:35 10° WNW 14:22:53 81° NNE 14:26:10 10° ESE daylight
20 Dec - 15:56:23 10° W 15:59:06 24° SW 16:01:48 10° SSE daylight
21 Dec - 08:39:24 10° S 08:41:10 14° SE 08:42:57 10° ESE daylight
21 Dec - 10:13:54 10° WSW 10:17:09 67° SSE 10:20:26 10° ENE daylight
21 Dec - 11:50:31 10° W 11:53:44 50° N 11:56:58 10° ENE daylight
21 Dec - 13:27:14 10° WNW 13:30:31 61° NNE 13:33:46 10° E daylight
21 Dec - 15:03:50 10° WNW 15:06:55 38° SSW 15:10:00 10° SE daylight
22 Dec - 09:21:46 10° SW 09:24:53 42° SSE 09:28:02 10° ENE daylight
22 Dec - 10:58:04 10° W 11:01:20 58° NNW 11:04:36 10° ENE daylight
22 Dec - 12:34:52 10° WNW 12:38:06 51° N 12:41:20 10° E daylight
22 Dec - 14:11:24 10° WNW 14:14:40 61° SSW 14:17:55 10° SE daylight
22 Dec - 15:49:11 10° WSW 15:50:36 12° SW 15:52:01 10° SSW daylight
23 Dec - 08:29:52 10° SSW 08:32:41 26° SE 08:35:30 10° E daylight
23 Dec - 10:05:39 10° WSW 10:08:56 75° NNW 10:12:14 10° ENE daylight
23 Dec - 11:42:28 10° WNW 11:45:40 47° N 11:48:52 10° ENE daylight
23 Dec - 13:19:02 10° WNW 13:22:21 90° E 13:25:38 10° ESE daylight
23 Dec - 14:55:58 10° W 14:58:29 20° SW 15:01:00 10° S daylight
24 Dec - 07:38:22 10° S 07:40:31 16° SE 07:42:41 10° E daylight
24 Dec - 09:13:17 10° WSW 09:16:35 78° SSE 09:19:52 10° ENE daylight
24 Dec - 10:50:00 10° W 10:53:12 48° N 10:56:25 10° ENE daylight
24 Dec - 12:26:40 10° WNW 12:29:57 67° NNE 12:33:14 10° E daylight
24 Dec - 14:03:18 10° W 14:06:18 32° SW 14:09:17 10° SSE daylight
25 Dec - 08:21:04 10° SW 08:24:15 50° SSE 08:27:27 10° ENE daylight
25 Dec - 09:57:30 10° W 10:00:45 54° N 10:03:59 10° ENE daylight
25 Dec - 11:34:16 10° WNW 11:37:31 54° N 11:40:46 10° E daylight
25 Dec - 13:10:48 10° WNW 13:14:02 52° SSW 13:17:14 10° SE daylight
25 Dec - 14:49:32 10° SW 14:49:53 10° SW 14:50:14 10° SW daylight
